Погода в Нолька

Россия / Республика Марий Эл     56°35′17″N   47°54′09″E
темп.,
°C
ветер,
м/с
пор.,
м/с
влажн.,
%
обл.,
%
осадки,
мм/ч
давл.,
гПа
погр.,
м
12 апреля, пн
пн1200:00−1св1198100 0.0 103612
03:000ссв2499100 0.0 103783
06:00+2св2799100 0.0 1037186
09:00+4всв3597100 0.0 1038245
12:00+8всв3489100 0.0 1038416
15:00+9всв4688100 0.0 1038456
18:00+5всв4896100 0.0 1038327
21:00+5в31196100 0.0 1038335
13 апреля, вт
вт1300:00+5вюв31197100 0.0 1038304
03:00+4юв31094100 0.0 1037219
06:00+4юв3994100 0.0 1036190
09:00+10ююв368370 0.0 1035336
12:00+15ю467154 0.0 1034675
15:00+17ю466581 0.0 1032969
18:00+13ю248127 0.0 103175
21:00+9ю388912 0.0 1032142
14 апреля, ср
ср1400:00+7ю258915 0.0 103181
03:00+6ю22895 0.0 103130
06:00+6ююв238645 0.0 103060
09:00+13ю355739 0.0 1030360
12:00+17ю453926 0.0 1028900
15:00+18ю46385 0.0 10271154
18:00+14ююв23615 0.0 102546
21:00+10ююв25815 0.0 102572
15 апреля, чт
чт1500:00+8ю24876 0.0 102470
03:00+8ю229047 0.0 102424
06:00+8ю238821 0.0 102369
09:00+14ю24625 0.0 1022467
12:00+18ююз33485 0.0 10201247
15:00+19ююз33458 0.0 10191612
18:00+15ююз22616 0.0 101817
21:00+11ююз22709 0.0 101814
16 апреля, пт
пт1600:00+10ююз227759 0.0 101814
03:00+8юз118376 0.0 101710
06:00+10зсз1182100 0.0 101712
09:00+10с2580100 0.0 1017214
12:00+15с4456100 0.0 1017968
15:00+13с6661100 0.0 10181142
18:00+7ссв598092 0.0 1020638
21:00+5ссв37790 0.0 1021355